Location: Newark
(36.0797°N, 3.9744°E)
Time: 06:12:29
(UTC+00:00)

Vanguard 2 Rocket - Pass Details

Date: 15 December 2019
Orbit: 554 x 3326 km, 32.9° (Epoch: 18 January)

Event Time Altitude Azimuth Distance (km) Brightness Sun altitude
Rises 15:03:25 0° 231° (SW) 7,302 13.5 13.5°
Reaches altitude 10° 15:08:36 10° 228° (SW) 6,261 15.0 12.8°
Maximum altitude 15:27:19 55° 157° (SSE) 3,118 9.9 9.9°
Drops below altitude 10° 15:39:51 10° 85° (E) 4,363 9.9 7.9°
Sets 15:42:43 0° 81° (E) 5,044 10.1 7.4°
